• In Portugal
  • List of Countries
  • For 7 days
  • Water Temperature
  • Satellite Maps
  • Weather Map
  • Weather Widgets
  • user-avatar
    Login

    Hourly Weather Plovdiv

    Today, 20 September, Thursday

    Time Temperature Precipitation Wind Pressure Humidity
    00:00 +16°C° 0 mm 1 mps 742 mmHg 68%
    01:00 +16°C° 0 mm 1 mps 742 mmHg 69%
    02:00 +15°C° 0 mm 1 mps 742 mmHg 71%
    03:00 +15°C° 0 mm 1 mps 742 mmHg 72%
    04:00 +15°C° 0 mm 1 mps 742 mmHg 72%
    05:00 +15°C° 0 mm 1 mps 742 mmHg 72%
    06:00 +16°C° 0 mm 1 mps 742 mmHg 67%
    07:00 +19°C° 0 mm 1 mps 742 mmHg 61%
    08:00 +21°C° 0 mm 1 mps 742 mmHg 54%
    09:00 +23°C° 0 mm 1 mps 742 mmHg 48%
    10:00 +25°C° 0 mm 1 mps 742 mmHg 42%
    11:00 +27°C° 0 mm 1 mps 742 mmHg 36%
    12:00 +28°C° 0 mm 2 mps 742 mmHg 33%
    13:00 +28°C° 0 mm 2 mps 741 mmHg 30%
    14:00 +29°C° 0 mm 2 mps 741 mmHg 30%
    15:00 +28°C° 0 mm 2 mps 741 mmHg 31%
    16:00 +28°C° 0 mm 2 mps 741 mmHg 32%
    17:00 +27°C° 0 mm 2 mps 740 mmHg 33%
    18:00 +25°C° 0 mm 2 mps 740 mmHg 39%
    19:00 +21°C° 0 mm 2 mps 741 mmHg 45%
    20:00 +20°C° 0 mm 1 mps 741 mmHg 50%
    21:00 +19°C° 0 mm 1 mps 741 mmHg 52%
    22:00 +19°C° 0 mm 1 mps 741 mmHg 53%
    23:00 +18°C° 0 mm 1 mps 741 mmHg 55%

    Tomorrow, 21 September, Friday

    Time Temperature Precipitation Wind Pressure Humidity
    00:00 +18°C° 0 mm 1 mps 741 mmHg 56%
    01:00 +18°C° 0 mm 1 mps 741 mmHg 58%
    02:00 +16°C° 0 mm 1 mps 741 mmHg 59%
    03:00 +16°C° 0 mm 1 mps 741 mmHg 60%
    04:00 +16°C° 0 mm 1 mps 741 mmHg 60%
    05:00 +16°C° 0 mm 1 mps 741 mmHg 61%
    06:00 +18°C° 0 mm 1 mps 741 mmHg 57%
    07:00 +20°C° 0 mm 1 mps 741 mmHg 54%
    08:00 +22°C° 0 mm 1 mps 741 mmHg 50%
    09:00 +24°C° 0 mm 1 mps 741 mmHg 44%
    10:00 +26°C° 0 mm 1 mps 741 mmHg 38%
    11:00 +28°C° 0 mm 1 mps 741 mmHg 33%
    12:00 +29°C° 0 mm 2 mps 741 mmHg 31%
    13:00 +29°C° 0 mm 2 mps 740 mmHg 29%
    14:00 +30°C° 0 mm 2 mps 740 mmHg 27%
    15:00 +29°C° 0 mm 2 mps 740 mmHg 30%
    16:00 +28°C° 0 mm 2 mps 739 mmHg 32%
    17:00 +28°C° 0 mm 2 mps 739 mmHg 34%
    18:00 +26°C° 0 mm 1 mps 739 mmHg 38%
    19:00 +24°C° 0 mm 1 mps 739 mmHg 43%
    20:00 +22°C° 0 mm 1 mps 739 mmHg 47%
    21:00 +21°C° 0 mm 1 mps 740 mmHg 48%
    22:00 +21°C° 0 mm 1 mps 740 mmHg 50%
    23:00 +21°C° 0 mm 1 mps 740 mmHg 52%

    Day after tomorrow, 22 September, Saturday

    Time Temperature Precipitation Wind Pressure Humidity
    00:00 +20°C° 0 mm 1 mps 740 mmHg 54%
    01:00 +20°C° 0 mm 1 mps 740 mmHg 56%
    02:00 +19°C° 0 mm 1 mps 740 mmHg 58%
    03:00 +19°C° 0 mm 1 mps 740 mmHg 59%
    04:00 +19°C° 0 mm 1 mps 740 mmHg 59%
    05:00 +19°C° 0 mm 1 mps 740 mmHg 60%
    06:00 +20°C° 0 mm 1 mps 740 mmHg 56%
    07:00 +22°C° 0 mm 1 mps 740 mmHg 52%
    08:00 +23°C° 0 mm 1 mps 740 mmHg 49%
    09:00 +25°C° 0 mm 1 mps 740 mmHg 42%
    10:00 +28°C° 0 mm 1 mps 740 mmHg 36%
    11:00 +30°C° 0 mm 1 mps 740 mmHg 30%
    12:00 +31°C° 0 mm 1 mps 740 mmHg 29%
    13:00 +31°C° 0 mm 1 mps 740 mmHg 27%
    14:00 +32°C° 0 mm 2 mps 739 mmHg 26%
    15:00 +31°C° 0 mm 2 mps 739 mmHg 28%
    16:00 +31°C° 0 mm 2 mps 739 mmHg 30%
    17:00 +30°C° 0 mm 1 mps 739 mmHg 32%
    18:00 +28°C° 0 mm 1 mps 739 mmHg 36%
    19:00 +25°C° 0 mm 1 mps 739 mmHg 40%
    20:00 +23°C° 0 mm 1 mps 739 mmHg 45%
    21:00 +23°C° 0 mm 1 mps 740 mmHg 45%
    22:00 +21°C° 0 mm 2 mps 740 mmHg 46%
    23:00 +21°C° 0 mm 2 mps 741 mmHg 47%

    23 September, Sunday

    Time Temperature Precipitation Wind Pressure Humidity
    00:00 +21°C° 0 mm 2 mps 741 mmHg 48%
    01:00 +20°C° 0 mm 2 mps 741 mmHg 50%
    02:00 +20°C° 0 mm 2 mps 741 mmHg 51%
    03:00 +19°C° 0 mm 2 mps 741 mmHg 53%
    04:00 +19°C° 0 mm 2 mps 741 mmHg 55%
    05:00 +19°C° 0 mm 2 mps 741 mmHg 56%
    06:00 +20°C° 0 mm 2 mps 742 mmHg 56%
    07:00 +21°C° 0 mm 2 mps 742 mmHg 56%
    08:00 +24°C° 0 mm 2 mps 743 mmHg 55%
    09:00 +25°C° 0 mm 2 mps 743 mmHg 50%
    10:00 +27°C° 0 mm 2 mps 743 mmHg 44%
    11:00 +29°C° 0 mm 2 mps 743 mmHg 38%
    12:00 +30°C° 0 mm 2 mps 743 mmHg 37%
    13:00 +31°C° 0 mm 2 mps 743 mmHg 35%
    14:00 +31°C° 0 mm 2 mps 742 mmHg 33%
    15:00 +31°C° 0 mm 2 mps 742 mmHg 36%
    16:00 +30°C° 0 mm 2 mps 742 mmHg 38%
    17:00 +29°C° 0 mm 1 mps 742 mmHg 40%
    18:00 +27°C° 0 mm 1 mps 742 mmHg 45%
    19:00 +25°C° 0 mm 1 mps 742 mmHg 50%
    20:00 +23°C° 0 mm 1 mps 742 mmHg 55%
    21:00 +22°C° 0 mm 1 mps 743 mmHg 57%
    22:00 +22°C° 0 mm 1 mps 743 mmHg 58%
    23:00 +21°C° 0 mm 1 mps 743 mmHg 60%

    24 September, Monday

    Time Temperature Precipitation Wind Pressure Humidity
    00:00 +21°C° 0 mm 1 mps 743 mmHg 62%
    01:00 +20°C° 0 mm 1 mps 742 mmHg 65%
    02:00 +20°C° 0 mm 1 mps 742 mmHg 67%
    03:00 +19°C° 0 mm 1 mps 742 mmHg 69%
    04:00 +19°C° 0 mm 1 mps 741 mmHg 70%
    05:00 +19°C° 0 mm 1 mps 741 mmHg 72%
    06:00 +20°C° 0 mm 1 mps 740 mmHg 68%
    07:00 +21°C° 0 mm 1 mps 740 mmHg 63%
    08:00 +23°C° 0 mm 1 mps 740 mmHg 59%
    09:00 +25°C° 0 mm 1 mps 739 mmHg 52%
    10:00 +28°C° 0 mm 1 mps 739 mmHg 45%
    11:00 +30°C° 0 mm 2 mps 739 mmHg 38%
    12:00 +31°C° 0 mm 2 mps 738 mmHg 36%
    13:00 +32°C° 0 mm 2 mps 737 mmHg 34%
    14:00 +34°C° 0 mm 2 mps 737 mmHg 31%
    15:00 +34°C° 0 mm 2 mps 736 mmHg 33%
    16:00 +32°C° 0 mm 2 mps 736 mmHg 35%
    17:00 +32°C° 0 mm 1 mps 736 mmHg 37%
    18:00 +29°C° 0 mm 2 mps 736 mmHg 43%
    19:00 +27°C° 0 mm 2 mps 737 mmHg 49%
    20:00 +24°C° 0 mm 2 mps 737 mmHg 56%
    21:00 +23°C° 0 mm 2 mps 738 mmHg 58%
    22:00 +21°C° 0 mm 2 mps 739 mmHg 61%
    23:00 +20°C° 0 mm 3 mps 739 mmHg 63%

    25 September, Tuesday

    Time Temperature Precipitation Wind Pressure Humidity
    00:00 +19°C° 0 mm 3 mps 740 mmHg 64%
    01:00 +19°C° 0 mm 3 mps 740 mmHg 64%
    02:00 +18°C° 0 mm 3 mps 740 mmHg 64%
    03:00 +17°C° 0 mm 3 mps 741 mmHg 64%
    04:00 +17°C° 0 mm 3 mps 741 mmHg 64%
    05:00 +16°C° 0 mm 3 mps 741 mmHg 64%
    06:00 +16°C° 0 mm 3 mps 742 mmHg 62%
    07:00 +17°C° 0 mm 3 mps 742 mmHg 60%
    08:00 +17°C° 0 mm 3 mps 742 mmHg 58%
    09:00 +17°C° 0 mm 3 mps 743 mmHg 55%
    10:00 +17°C° 0 mm 2 mps 743 mmHg 53%
    11:00 +18°C° 0 mm 2 mps 743 mmHg 50%
    12:00 +17°C° 0.2 mm 2 mps 743 mmHg 52%
    13:00 +16°C° 0.2 mm 2 mps 744 mmHg 53%
    14:00 +15°C° 0.2 mm 2 mps 744 mmHg 55%
    15:00 +15°C° 0.1 mm 2 mps 744 mmHg 57%
    16:00 +14°C° 0.1 mm 2 mps 744 mmHg 59%
    17:00 +13°C° 0.1 mm 2 mps 744 mmHg 62%
    18:00 +13°C° 0.4 mm 2 mps 744 mmHg 67%
    19:00 +12°C° 0.4 mm 2 mps 745 mmHg 72%
    20:00 +10°C° 0.4 mm 2 mps 745 mmHg 77%
    21:00 +10°C° 0.3 mm 2 mps 745 mmHg 78%
    22:00 +11°C° 0.3 mm 1 mps 746 mmHg 80%
    23:00 +10°C° 0.3 mm 1 mps 746 mmHg 82%
    Show more